Kake, AK

2:56 AM AKDT on September 21, 2017 (GMT -0800)
Kake

Weather History for PAFE - September, 2012

Change the Weather History Date:

Friday, September 14, 2012

  Actual Average Record
Temperature  
Mean Temperature 50 °F -  
Max Temperature 55 °F 53 °F 66 °F (1997)
Min Temperature 46 °F 43 °F 39 °F (2010)
Degree Days  
Heating Degree Days 14    
Moisture  
Dew Point 45 °F    
Average Humidity 79    
Maximum Humidity 87    
Minimum Humidity 67    
Precipitation  
Precipitation 0.00 in - - ()
Sea Level Pressure  
Sea Level Pressure 30.18 in    
Wind  
Wind Speed 7 mph (SE)    
Max Wind Speed 10 mph    
Max Gust Speed 16 mph    
Visibility 10 miles    
Events      
Averages and records for this station are not official NWS values.
T = Trace of Precipitation, MM = Missing Value Source: NWS Daily Summary

Daily Weather History Graph

Daily Weather History Graph

Search for Another Location

Airport or City:

Trip Planner

Search our weather history database for the weather conditions in past years. The results will help you decide how hot, cold, wet, or windy it might be!

Date:

Astronomy

Sep. 14, 2012 Rise Set
Actual Time 6:25 AM AKDT 7:14 PM AKDT
Civil Twilight 5:47 AM AKDT 7:53 PM AKDT
Nautical Twilight 4:59 AM AKDT 8:40 PM AKDT
Astronomical Twilight 4:08 AM AKDT 9:31 PM AKDT
Moon 4:50 AM AKDT (9/14) 6:15 PM AKDT (9/14)
Length of Visible Light 14h 06m
Length of Day
12h 49m
Waning Crescent, 2% of the Moon is Illuminated
Sep 14
Waning Crescent
Sep 15
New
Sep 22
First Quarter
Sep 29
Full
Oct 7
Last Quarter

Hourly Weather History & Observations

Time (AKDT) Temp. Windchill Dew Point Humidity Pressure Visibility Wind Dir Wind Speed Gust Speed Precip Events Conditions
12:16 AM 50.0 °F - 44.6 °F 82% 29.92 in 10.0 mi SE 6.9 mph - N/A   Overcast
12:36 AM 50.0 °F - 44.6 °F 82% 29.94 in 10.0 mi SE 8.1 mph - N/A   Overcast
12:56 AM 50.0 °F - 44.6 °F 82% 29.96 in 10.0 mi SE 8.1 mph - N/A   Overcast
1:16 AM 50.0 °F - 44.6 °F 82% 29.97 in 10.0 mi SSE 5.8 mph - N/A   Overcast
1:36 AM 50.0 °F - 44.6 °F 82% 29.98 in 10.0 mi SE 8.1 mph - N/A   Overcast
1:56 AM 50.0 °F - 44.6 °F 82% 30.00 in 10.0 mi SE 6.9 mph - N/A   Overcast
2:16 AM 48.2 °F - 44.6 °F 87% 30.01 in 10.0 mi SSE 5.8 mph - N/A   Scattered Clouds
2:36 AM 48.2 °F - 42.8 °F 82% 30.02 in 10.0 mi SE 4.6 mph - N/A   Partly Cloudy
2:56 AM 48.2 °F - 44.6 °F 87% 30.03 in 10.0 mi SE 5.8 mph - N/A   Mostly Cloudy
3:16 AM 48.2 °F - 44.6 °F 87% 30.03 in 10.0 mi SE 8.1 mph - N/A   Overcast
3:36 AM 48.2 °F - 42.8 °F 82% 30.04 in 10.0 mi SE 4.6 mph - N/A   Overcast
3:56 AM 48.2 °F - 42.8 °F 82% 30.04 in 10.0 mi ESE 4.6 mph - N/A   Mostly Cloudy
4:16 AM 46.4 °F 43.5 °F 42.8 °F 87% 30.05 in 10.0 mi ESE 5.8 mph - N/A   Partly Cloudy
4:36 AM 46.4 °F 43.5 °F 42.8 °F 87% 30.06 in 10.0 mi ESE 5.8 mph - N/A   Clear
4:56 AM 46.4 °F 42.4 °F 42.8 °F 87% 30.07 in 10.0 mi East 8.1 mph - N/A   Partly Cloudy
5:16 AM 48.2 °F - 42.8 °F 82% 30.07 in 10.0 mi SE 8.1 mph - N/A   Scattered Clouds
5:36 AM 46.4 °F 41.5 °F 42.8 °F 87% 30.08 in 10.0 mi East 10.4 mph - N/A   Mostly Cloudy
5:56 AM 48.2 °F - 42.8 °F 82% 30.09 in 10.0 mi East 5.8 mph - N/A   Overcast
6:16 AM 48.2 °F - 42.8 °F 82% 30.10 in 10.0 mi SE 5.8 mph - N/A   Overcast
6:36 AM 48.2 °F - 42.8 °F 82% 30.11 in 10.0 mi ESE 5.8 mph - N/A   Overcast
6:56 AM 48.2 °F - 44.6 °F 87% 30.11 in 10.0 mi ESE 10.4 mph 16.1 mph N/A   Overcast
7:16 AM 48.2 °F - 42.8 °F 82% 30.12 in 10.0 mi East 6.9 mph - N/A   Overcast
7:36 AM 48.2 °F - 44.6 °F 87% 30.13 in 10.0 mi ESE 6.9 mph - N/A   Overcast
7:56 AM 48.2 °F - 44.6 °F 87% 30.14 in 10.0 mi ESE 8.1 mph - N/A   Overcast
8:16 AM 48.2 °F - 44.6 °F 87% 30.15 in 10.0 mi ESE 9.2 mph - N/A   Overcast
8:36 AM 50.0 °F - 44.6 °F 82% 30.16 in 10.0 mi ESE 6.9 mph - N/A   Overcast
8:56 AM 50.0 °F - 44.6 °F 82% 30.17 in 10.0 mi ESE 8.1 mph - N/A   Mostly Cloudy
9:16 AM 51.8 °F - 44.6 °F 76% 30.17 in 10.0 mi ESE 8.1 mph - N/A   Scattered Clouds
9:36 AM 51.8 °F - 44.6 °F 76% 30.17 in 10.0 mi East 9.2 mph - N/A   Partly Cloudy
9:56 AM 51.8 °F - 44.6 °F 76% 30.18 in 10.0 mi ESE 8.1 mph - N/A   Partly Cloudy
10:16 AM 51.8 °F - 44.6 °F 76% 30.19 in 10.0 mi SE 9.2 mph - N/A   Mostly Cloudy
10:36 AM 51.8 °F - 44.6 °F 76% 30.19 in 10.0 mi SE 8.1 mph - N/A   Overcast
10:56 AM 51.8 °F - 46.4 °F 82% 30.20 in 10.0 mi SSE 8.1 mph - N/A   Overcast
11:16 AM 51.8 °F - 46.4 °F 82% 30.21 in 10.0 mi SSE 6.9 mph - N/A   Overcast
11:36 AM 53.6 °F - 46.4 °F 77% 30.21 in 10.0 mi SE 8.1 mph - N/A   Overcast
11:56 AM 53.6 °F - 46.4 °F 77% 30.22 in 10.0 mi SE 8.1 mph - N/A   Overcast
12:16 PM 53.6 °F - 46.4 °F 77% 30.22 in 10.0 mi SE 8.1 mph - N/A   Overcast
12:36 PM 53.6 °F - 46.4 °F 77% 30.22 in 10.0 mi SE 8.1 mph - N/A   Overcast
12:56 PM 53.6 °F - 46.4 °F 77% 30.23 in 10.0 mi SE 6.9 mph - N/A   Overcast
1:16 PM 53.6 °F - 46.4 °F 77% 30.23 in 10.0 mi SE 5.8 mph - N/A   Overcast
1:36 PM 53.6 °F - 46.4 °F 77% 30.24 in 10.0 mi ESE 5.8 mph - N/A   Overcast
1:56 PM 53.6 °F - 46.4 °F 77% 30.24 in 9.0 mi ESE 4.6 mph - N/A   Overcast
2:16 PM 55.4 °F - 46.4 °F 72% 30.24 in 10.0 mi SSE 8.1 mph - N/A   Overcast
2:36 PM 55.4 °F - 46.4 °F 72% 30.24 in 10.0 mi SSE 6.9 mph - N/A   Overcast
2:56 PM 55.4 °F - 46.4 °F 72% 30.24 in 10.0 mi SSE 5.8 mph - N/A   Overcast
3:16 PM 55.4 °F - 46.4 °F 72% 30.24 in 10.0 mi South 4.6 mph - N/A   Mostly Cloudy
3:36 PM 55.4 °F - 44.6 °F 67% 30.24 in 10.0 mi SSE 4.6 mph - N/A   Mostly Cloudy
3:56 PM 55.4 °F - 46.4 °F 72% 30.24 in 10.0 mi South 6.9 mph - N/A   Clear
4:16 PM 55.4 °F - 44.6 °F 67% 30.25 in 10.0 mi South 4.6 mph - N/A   Partly Cloudy
4:36 PM 55.4 °F - 44.6 °F 67% 30.24 in 10.0 mi South 4.6 mph - N/A   Mostly Cloudy
4:56 PM 55.4 °F - 44.6 °F 67% 30.25 in 10.0 mi South 4.6 mph - N/A   Mostly Cloudy
5:16 PM 53.6 °F - 44.6 °F 72% 30.25 in 10.0 mi South 6.9 mph - N/A   Overcast
5:36 PM 53.6 °F - 44.6 °F 72% 30.25 in 10.0 mi Calm Calm - N/A   Overcast
5:56 PM 53.6 °F - 44.6 °F 72% 30.25 in 10.0 mi Calm Calm - N/A   Overcast
6:16 PM 53.6 °F - 44.6 °F 72% 30.26 in 10.0 mi Calm Calm - N/A   Overcast
6:36 PM 53.6 °F - 44.6 °F 72% 30.26 in 10.0 mi SSE 4.6 mph - N/A   Overcast
6:56 PM 53.6 °F - 44.6 °F 72% 30.26 in 10.0 mi South 4.6 mph - N/A   Mostly Cloudy
7:16 PM 51.8 °F - 44.6 °F 76% 30.27 in 10.0 mi SSE 4.6 mph - N/A   Overcast
7:36 PM 51.8 °F - 44.6 °F 76% 30.27 in 10.0 mi SSE 3.5 mph - N/A   Overcast
7:56 PM 51.8 °F - 44.6 °F 76% 30.28 in 10.0 mi SE 3.5 mph - N/A   Overcast
8:16 PM 51.8 °F - 44.6 °F 76% 30.28 in 10.0 mi ESE 4.6 mph - N/A   Overcast
8:36 PM 51.8 °F - 44.6 °F 76% 30.28 in 10.0 mi SE 3.5 mph - N/A   Overcast
8:56 PM 50.0 °F - 44.6 °F 82% 30.28 in 10.0 mi ESE 3.5 mph - N/A   Overcast
9:16 PM 50.0 °F - 44.6 °F 82% 30.28 in 10.0 mi ESE 5.8 mph - N/A   Mostly Cloudy
9:36 PM 48.2 °F - 42.8 °F 82% 30.29 in 10.0 mi East 6.9 mph - N/A   Scattered Clouds
9:56 PM 48.2 °F - 44.6 °F 87% 30.29 in 10.0 mi East 5.8 mph - N/A   Overcast
10:16 PM 48.2 °F - 44.6 °F 87% 30.29 in 10.0 mi ESE 5.8 mph - N/A   Mostly Cloudy
10:36 PM 50.0 °F - 44.6 °F 82% 30.30 in 10.0 mi ESE 5.8 mph - N/A   Mostly Cloudy
10:56 PM 48.2 °F - 44.6 °F 87% 30.30 in 10.0 mi SE 4.6 mph - N/A   Overcast
11:16 PM 48.2 °F - 44.6 °F 87% 30.31 in 10.0 mi East 5.8 mph - N/A   Overcast
11:36 PM 48.2 °F - 44.6 °F 87% 30.31 in 10.0 mi East 6.9 mph - N/A   Overcast
11:56 PM 48.2 °F - 44.6 °F 87% 30.31 in 10.0 mi East 6.9 mph - N/A   Overcast